Regional Weather Roundup
Issued by NWS

Home | Current Version | Previous Version | Graphics & Text | Print | Product List | Glossary On
Versions: 1 2 3 4 5 6 7 8 9 10 11 12 13 14 15 16 17 18 19 20 21 22 23 24 25 26 27 28 29 30 31 32 33 34 35 36 37 38 39 40 41 42 43 44 45 46 47 48 49 50
000
ASUS45 KBOU 242007
RWRCO

WEATHER ROUNDUP FOR COLORADO
NATIONAL WEATHER SERVICE DENVER/BOULDER CO
200 PM MDT SUN MAY 24 2015

NOTE: "FAIR" INDICATES FEW OR NO CLOUDS BELOW 12000 FEET WITH NO
SIGNIFICANT WEATHER AND/OR OBSTRUCTIONS TO VISIBILITY.

COZ001>005-013-030-031-242100-
...NORTHWEST COLORADO...

CITY           SKY/WX    TMP DP  RH WIND       PRES   REMARKS
CRAIG          LGT RAIN  43  39  86 W12       29.96S
HAYDEN         CLOUDY    43  36  75 NW7       29.95F
MEEKER         LGT RAIN  44  38  79 SW8       29.97F
MOUNT WERNER   NOT AVBL
STEAMBOAT SPGS CLOUDY    43  37  78 CALM      29.95F
WALDEN         CLOUDY    45  32  61 S9G17     29.92F
$$

COZ006>008-011-242100-
...WEST CENTRAL VALLEYS...

CITY           SKY/WX    TMP DP  RH WIND       PRES   REMARKS
GRAND JUNCTION PTSUNNY   60  41  49 NW7       29.91F
MONTROSE       PTSUNNY   56  39  53 NW10      29.96S
EAGLE          PTSUNNY   54  37  54 SW22G30   29.94S
RIFLE          LGT RAIN  50  41  71 N6        29.96R
DELTA          PTSUNNY   62  38  42 MISG      29.92F
NUCLA          CLOUDY    52  43  71 N7        30.00S
$$

COZ017>023-064>068-242100-
...SOUTHWEST COLORADO...

CITY           SKY/WX    TMP DP  RH WIND       PRES   REMARKS
DURANGO        PTSUNNY   54  40  59 W9G21     29.98F
CORTEZ         PTSUNNY   56  41  57 SW6       29.99F
PAGOSA SPRINGS TSTM      47  38  73 SW12G18   30.01S
TELLURIDE      MOSUNNY   47  31  53 W10       30.05S
WOLF CREEK PAS NOT AVBL
$$

COZ009-010-012-014-032>034-037-058>063-242100-
...CENTRAL COLORADO...

CITY           SKY/WX    TMP DP  RH WIND       PRES   REMARKS
ASPEN          CLOUDY    49  34  56 NW14G22   29.95S
BUENA VISTA    PTSUNNY   54  25  33 S8        29.91F
COPPER MTN     CLOUDY    36  19  51 SW9       30.06S
BERTHOUD PASS  CLOUDY    28  21  74 MISG      30.08S THUNDER
COTTONWOOD PAS CLOUDY    48  23  37 CALM      29.98F
GUNNISON       PTSUNNY   50  28  43 N7        29.97F
KREMMLING      PTSUNNY   54  32  43 E9        29.92F
LEADVILLE      CLOUDY    43  22  43 N5        29.98S
MONARCH PASS   CLOUDY    34  23  64 SW22      30.17F WCI  22
SALIDA         PTSUNNY   58  27  30 S8        29.97F
SUNLIGHT       SNOW      34  32  93 SW5       30.08S VSB 1/4 WCI  30
WILKERSON PASS MOSUNNY   43  25  49 SW7       30.05F
$$

COZ069>075-242100-
...SAN LUIS VALLEY/SANGRE DE CRISTO MOUNTAINS...

CITY           SKY/WX    TMP DP  RH WIND       PRES   REMARKS
ALAMOSA        LGT RAIN  41  34  76 NW21G33   29.96R
LA VETA PASS   CLOUDY   N/A N/A N/A MISG      30.01F THUNDER
SAGUACHE       PTSUNNY   43  34  70 SE8       29.98S
$$

COZ035-036-038>040-242100-
...NORTHERN COLORADO FRONT RANGE...

CITY           SKY/WX    TMP DP  RH WIND       PRES   REMARKS
DENVER INTL AP CLOUDY    59  40  49 E15G23    29.86F
DMNS CITY PARK   N/A     56  40  53 E10G16    29.85S
AURORA         PTSUNNY   58  39  50 NE14      29.87F
FRONT RANGE AP PTSUNNY   57  45  62 E14       29.87F
ERIE MUNI ARPT PTSUNNY   59  46  60 E9G17     29.85F
BOULDER MUN AP TSTM      54  45  71 S3        29.87R
CENTENNIAL     PTSUNNY   57  41  55 NE10      29.87F
BROOMFIELD     LGT RAIN  57  45  62 NE9G23    29.87F
FORT COLLINS   CLOUDY    57  43  58 SE9       29.87F
LONGMONT       CLOUDY    61  46  57 E3        29.88F
$$

COZ041-046-047-076>085-087-088-242100-
...PIKES PEAK/PALMER DIVIDE AND SOUTHERN FOOTHILLS...

CITY           SKY/WX    TMP DP  RH WIND       PRES   REMARKS
COLO. SPRINGS  PTSUNNY   53  42  66 VRB7      29.88F
A. F. ACADEMY  PTSUNNY   51  36  55 S8        29.87F
ELLICOTT       NOT AVBL
FALCON         CLOUDY    49  38  63 SE10      29.90F
FORT CARSON    MOSUNNY   52  43  70 S2        29.86F
LIMON          PTSUNNY   60  44  55 S13       29.86S
MONUMENT HILL  NOT AVBL
TRINIDAD       CLOUDY    62  38  40 W6        29.86S
$$

COZ042>045-048>051-090-091-242100-
...NORTHEAST COLORADO...

CITY           SKY/WX    TMP DP  RH WIND       PRES   REMARKS
GREELEY ARPT   CLOUDY    55  45  67 SE13      29.85F
AKRON          PTSUNNY   63  48  58 E12       29.83F
BURLINGTON     MOSUNNY   67  52  58 SE15      29.83F
WRAY           PTSUNNY   68  52  56 E6        29.83F
STERLING       MOSUNNY   64  52  63 NE3       29.82F
HOLYOKE        NOT AVBL
FORT MORGAN    PTSUNNY   61  42  50 CALM      29.85F
$$

COZ086-089-092>099-242100-
...SOUTHEAST COLORADO...

CITY           SKY/WX    TMP DP  RH WIND       PRES   REMARKS
PUEBLO         CLOUDY    62  44  51 SE7       29.83F
LA JUNTA       MOSUNNY   67  48  50 N3        29.80F
LAMAR          PTSUNNY   71  54  54 E9        29.76F
SPRINGFIELD      N/A     71  52  50 SE13G22   29.80F
$$



USA.gov is the U.S. government's official web portal to all federal, state and local government web resources and services.